N3AVN Weather Reports


time (UTC)temp
F
wind
direction
speed
knots
gust
knots
rain 1hr
in
rain 24hr
in
rain mn
in
humidity
%
barometer
mb
20260510212818 67 180 0.0 2.6 0.00 0.00 0.00 65 1010.9
20260510212315 66 188 0.0 2.6 0.00 0.00 0.00 64 1010.9
20260510211812 67 352 0.0 4.3 0.00 0.00 0.00 64 1010.7
20260510211307 68 174 0.9 4.3 0.00 0.00 0.00 63 1010.5
20260510210803 68 321 0.0 2.6 0.00 0.00 0.00 62 1010.5
20260510210259 67 231 1.7 5.2 0.00 0.00 0.00 61 1010.5
20260510205758 67 251 5.2 8.7 0.00 0.00 0.00 64 1010.9
20260510205254 68 241 4.3 7.0 0.00 0.00 0.00 59 1010.9
20260510204750 68 236 2.6 6.1 0.00 0.00 0.00 60 1010.5
20260510204246 68 216 2.6 7.0 0.00 0.00 0.00 57 1010.5
20260510203743 68 274 2.6 6.1 0.00 0.00 0.00 58 1010.5
20260510203241 68 242 3.5 8.7 0.00 0.00 0.00 57 1010.5
20260510202741 68 230 3.5 13.9 0.00 0.00 0.00 60 1010.3
20260510202236 69 334 3.5 7.0 0.00 0.00 0.00 65 1010.2
20260510201734 69 85 0.0 5.2 0.00 0.00 0.00 71 1010.1
20260510201230 70 145 0.9 4.3 0.00 0.00 0.00 70 1009.9
20260510200727 70 140 1.7 6.1 0.00 0.00 0.00 66 1009.9
20260510200225 71 225 1.7 4.3 0.00 0.00 0.00 64 1009.7
20260510195721 71 270 0.0 5.2 0.00 0.00 0.00 65 1009.6
20260510195218 71 9 0.0 6.1 0.00 0.00 0.00 64 1009.6
20260510194717 72 109 0.9 5.2 0.00 0.00 0.00 67 1009.9
20260510194214 72 241 7.0 7.8 0.00 0.00 0.00 66 1009.8
20260510193709 73 279 0.0 5.2 0.00 0.00 0.00 65 1009.9
20260510193204 72 180 1.7 3.5 0.00 0.00 0.00 67 1009.9
20260510192700 72 75 1.7 7.0 0.00 0.00 0.00 66 1009.9
20260510192156 71 78 6.1 6.1 0.00 0.00 0.00 68 1010.0
20260510191652 70 98 0.0 2.6 0.00 0.00 0.00 69 1010.0
20260510191149 70 100 6.1 7.0 0.00 0.00 0.00 69 1010.2
20260510190646 70 244 2.6 7.0 0.00 0.00 0.00 69 1010.0
20260510190143 69 226 4.3 8.7 0.00 0.00 0.00 69 1010.2
20260510185640 69 77 1.7 7.0 0.00 0.00 0.00 70 1010.2
20260510185138 70 97 3.5 5.2 0.00 0.00 0.00 70 1010.4
20260510184635 70 188 0.0 10.4 0.00 0.00 0.00 69 1010.2
20260510184131 71 51 5.2 6.1 0.00 0.00 0.00 68 1010.2
20260510183626 70 116 2.6 9.6 0.00 0.00 0.00 68 1010.2
20260510183121 71 180 1.7 6.1 0.00 0.00 0.00 68 1010.4
20260510182619 71 254 3.5 7.8 0.00 0.00 0.00 68 1010.0
20260510182114 71 45 3.5 7.0 0.00 0.00 0.00 69 1009.8
20260510181611 69 125 0.0 7.8 0.00 0.00 0.00 70 1010.1
20260510181107 69 208 4.3 7.0 0.00 0.00 0.00 71 1009.9
20260510180604 71 282 0.0 5.2 0.00 0.00 0.00 68 1010.3
20260510175557 70 135 2.6 7.0 0.00 0.00 0.00 68 1010.3
20260510175053 71 163 1.7 8.7 0.00 0.00 0.00 68 1010.1
20260510174552 72 86 1.7 2.6 0.00 0.00 0.00 67 1010.1
20260510174048 71 144 5.2 7.0 0.00 0.00 0.00 68 1010.3
20260510173543 72 225 4.3 6.1 0.00 0.00 0.00 66 1010.3
20260510173041 70 348 0.9 6.1 0.00 0.00 0.00 69 1010.5
20260510172536 70 192 1.7 6.1 0.00 0.00 0.00 67 1010.5
20260510172033 71 143 1.7 7.8 0.00 0.00 0.00 66 1010.3
20260510171530 69 119 4.3 7.8 0.00 0.00 0.00 70 1010.4
20260510171026 71 244 5.2 7.8 0.00 0.00 0.00 71 1010.5
20260510170517 69 104 4.3 4.3 0.00 0.00 0.00 72 1010.6
20260510170014 69 77 5.2 5.2 0.00 0.00 0.00 73 1010.5
20260510165509 68 221 4.3 7.0 0.00 0.00 0.00 73 1010.8
20260510165006 68 99 4.3 7.8 0.00 0.00 0.00 74 1010.6
20260510164503 68 237 2.6 5.2 0.00 0.00 0.00 76 1010.7
20260510163959 67 96 2.6 2.6 0.00 0.00 0.00 77 1010.8
20260510163455 66 117 0.9 2.6 0.00 0.00 0.00 78 1010.8
20260510162950 66 166 0.9 4.3 0.00 0.00 0.00 78 1010.9
20260510162446 66 150 2.6 7.0 0.00 0.00 0.00 78 1011.1
20260510161942 66 210 1.7 2.6 0.00 0.00 0.00 77 1011.2
20260510161437 66 84 2.6 7.8 0.00 0.00 0.00 76 1011.0
20260510160936 67 32 1.7 5.2 0.00 0.00 0.00 75 1011.0
20260510160432 66 196 1.7 2.6 0.00 0.00 0.00 77 1011.1
20260510155925 65 134 5.2 5.2 0.00 0.00 0.00 78 1011.2
20260510155422 67 180 4.3 6.1 0.00 0.00 0.00 76 1011.3
20260510154919 66 34 2.6 3.5 0.00 0.00 0.00 77 1011.1
20260510154415 65 165 5.2 5.2 0.00 0.00 0.00 77 1011.2
20260510153908 65 152 1.7 7.8 0.00 0.00 0.00 77 1011.4
20260510153405 65 120 2.6 5.2 0.00 0.00 0.00 78 1011.4
20260510152901 66 213 1.7 3.5 0.00 0.00 0.00 76 1011.6
20260510152359 65 246 5.2 7.8 0.00 0.00 0.00 76 1011.6
20260510151855 64 243 2.6 5.2 0.00 0.00 0.00 77 1011.8
20260510151353 64 109 6.1 6.1 0.00 0.00 0.00 77 1011.6
20260510150849 63 184 1.7 6.1 0.00 0.00 0.00 78 1011.7
20260510150345 64 219 3.5 7.8 0.00 0.00 0.00 77 1011.5
20260510145841 63 114 2.6 3.5 0.00 0.00 0.00 80 1011.4
20260510145337 63 135 2.6 6.1 0.00 0.00 0.00 79 1011.3
20260510144834 64 191 0.0 5.2 0.00 0.00 0.00 79 1011.4
20260510144331 64 208 1.7 2.6 0.00 0.00 0.00 81 1011.4
20260510143831 61 337 3.5 6.1 0.00 0.00 0.00 81 1011.3
20260510143327 63 145 4.3 5.2 0.00 0.00 0.00 80 1011.6
20260510142824 63 148 1.7 3.5 0.00 0.00 0.00 80 1011.5
20260510142321 60 148 1.7 5.2 0.00 0.00 0.00 83 1011.7
20260510141818 60 94 0.0 4.3 0.00 0.00 0.00 83 1011.6
20260510141315 60 213 1.7 1.7 0.00 0.00 0.00 88 1011.6
20260510140813 59 212 2.6 3.5 0.00 0.00 0.00 86 1011.6
20260510140308 60 180 0.0 2.6 0.00 0.00 0.00 85 1011.5
20260510135801 60 203 0.0 1.7 0.00 0.00 0.00 86 1011.7
20260510135257 58 140 0.0 7.0 0.00 0.00 0.00 88 1011.6
20260510134755 59 270 0.0 1.7 0.00 0.00 0.00 88 1011.6
20260510134252 57 320 1.7 2.6 0.00 0.00 0.00 90 1011.6
20260510133743 57 59 3.5 3.5 0.00 0.00 0.00 91 1011.4
20260510133238 57 220 0.0 1.7 0.00 0.00 0.00 92 1011.6
20260510132734 56 180 0.0 1.7 0.00 0.00 0.00 92 1011.5
20260510132232 55 110 3.5 3.5 0.00 0.00 0.00 93 1011.6
20260510131729 55 210 1.7 2.6 0.00 0.00 0.00 93 1011.8
20260510131228 55 340 0.9 1.7 0.00 0.00 0.00 94 1011.6
20260510130723 55 114 0.0 2.6 0.00 0.00 0.00 94 1011.4
20260510130220 55 128 1.7 3.5 0.00 0.00 0.00 94 1011.5
20260510125717 55 106 0.0 2.6 0.00 0.00 0.00 94 1011.6
20260510125213 55 71 0.0 1.7 0.00 0.00 0.00 95 1011.3
20260510124709 55 115 0.0 1.7 0.00 0.00 0.00 95 1011.5
20260510124207 55 232 1.7 1.7 0.00 0.00 0.00 97 1011.5
20260510123702 55 105 0.0 1.7 0.00 0.00 0.00 98 1011.3
20260510123158 54 7 0.0 1.7 0.00 0.00 0.00 99 1011.5
20260510122654 53 188 0.0 1.7 0.00 0.00 0.00 99 1011.6
20260510122151 53 248 0.0 2.6 0.00 0.00 0.00 99 1011.4
20260510121648 53 300 1.7 2.6 0.00 0.00 0.00 99 1011.7
20260510121145 52 352 1.7 2.6 0.00 0.00 0.00 99 1011.6
20260510120642 53 228 0.0 3.5 0.00 0.00 0.00 99 1011.5
20260510120138 53 239 0.0 1.7 0.00 0.00 0.00 99 1011.7
20260510115634 53 180 0.0 0.0 0.00 0.00 0.00 99 1011.5
20260510115133 53 99 0.0 1.7 0.00 0.00 0.00 99 1011.6
20260510114628 52 157 0.9 1.7 0.00 0.00 0.00 99 1011.6
20260510114124 53 109 0.0 0.9 0.00 0.00 0.00 99 1011.5
20260510113620 52 145 0.9 1.7 0.00 0.00 0.00 99 1011.5
20260510113117 52 90 0.0 0.9 0.00 0.00 0.00 99 1011.5
20260510112614 52 103 0.0 0.9 0.00 0.00 0.00 99 1011.1
20260510112110 52 90 0.0 2.6 0.00 0.00 0.00 99 1011.1
20260510111607 52 0 0.0 0.0 0.00 0.00 0.00 99 1011.3
20260510111102 52 106 0.0 0.0 0.00 0.00 0.00 99 1011.1
20260510110559 52 154 0.0 1.7 0.00 0.00 0.00 99 1011.1
20260510110055 51 66 0.0 0.0 0.00 0.00 0.00 99 1011.2
20260510105550 51 103 0.0 0.0 0.00 0.00 0.00 99 1011.2
20260510105046 51 99 0.0 0.0 0.00 0.00 0.00 99 1010.9
20260510104543 51 90 0.0 0.0 0.00 0.00 0.00 99 1011.1
20260510104039 51 90 0.0 0.0 0.00 0.00 0.00 99 1010.9
20260510103536 51 114 0.0 1.7 0.00 0.00 0.00 99 1010.8
20260510103032 51 74 0.0 0.0 0.00 0.00 0.00 99 1010.8
20260510102527 51 74 0.0 0.0 0.00 0.00 0.00 99 1010.9
20260510102024 51 106 0.0 1.7 0.00 0.00 0.00 99 1010.8
20260510101521 51 151 0.0 0.9 0.00 0.00 0.00 99 1010.9
20260510101020 51 263 0.0 0.9 0.00 0.00 0.00 99 1010.9
20260510100516 51 109 0.0 0.0 0.00 0.00 0.00 99 1010.4
20260510100013 51 216 0.0 1.7 0.00 0.00 0.00 99 1010.3
20260510095508 51 354 0.0 1.7 0.00 0.00 0.00 99 1010.3
20260510095008 51 95 3.5 4.3 0.00 0.00 0.00 99 1010.4
20260510094502 51 71 0.0 2.6 0.00 0.00 0.00 99 1010.8
20260510093958 51 0 0.0 1.7 0.00 0.00 0.00 99 1010.6
20260510093454 51 114 0.9 1.7 0.00 0.00 0.00 99 1010.6
20260510092951 51 165 0.0 1.7 0.00 0.00 0.00 99 1010.6
20260510092448 51 132 1.7 1.7 0.00 0.00 0.00 99 1010.6
20260510091948 51 287 1.7 1.7 0.00 0.00 0.00 99 1010.7
20260510091445 51 120 0.0 2.6 0.00 0.00 0.00 99 1010.3
20260510090942 51 107 2.6 2.6 0.00 0.00 0.00 99 1010.4
20260510090439 51 200 0.9 1.7 0.00 0.00 0.00 99 1010.7
20260510085934 51 248 1.7 1.7 0.00 0.00 0.00 99 1010.6
20260510085429 51 124 0.0 1.7 0.00 0.00 0.00 99 1010.8
20260510084925 51 155 2.6 2.6 0.00 0.00 0.00 99 1010.9
20260510084423 51 135 0.0 1.7 0.00 0.00 0.00 99 1011.0
20260510083919 51 225 0.0 0.0 0.00 0.00 0.00 99 1010.8
20260510083415 51 225 0.0 0.0 0.00 0.00 0.00 99 1010.7
20260510082911 51 103 0.0 1.7 0.00 0.00 0.00 99 1010.6
20260510082409 51 240 0.0 0.0 0.00 0.00 0.00 99 1010.6
20260510081907 52 145 0.0 0.9 0.00 0.00 0.00 99 1010.5
20260510081404 52 114 0.0 0.9 0.00 0.00 0.00 99 1010.6
20260510080901 52 60 0.0 0.0 0.00 0.00 0.00 99 1010.7
20260510080354 52 99 0.0 0.9 0.00 0.00 0.00 99 1010.7
20260510075852 52 90 0.0 0.9 0.00 0.00 0.00 99 1010.6
20260510075349 52 117 2.6 2.6 0.00 0.00 0.00 99 1010.5
20260510074845 52 78 0.0 1.7 0.00 0.00 0.00 99 1010.7
20260510074343 52 98 0.0 0.9 0.00 0.00 0.00 99 1010.4
20260510073839 52 105 0.0 1.7 0.00 0.00 0.00 99 1010.3
20260510073335 52 103 0.0 1.7 0.00 0.00 0.00 99 1010.4
20260510072831 52 97 0.0 1.7 0.00 0.00 0.00 99 1010.4
20260510072328 52 154 0.0 1.7 0.00 0.00 0.00 99 1010.3
20260510071824 52 165 0.0 0.9 0.00 0.00 0.00 99 1010.4
20260510071320 52 99 0.0 0.0 0.00 0.00 0.00 99 1010.4
20260510070820 52 107 0.0 0.0 0.00 0.00 0.00 99 1010.3
20260510070310 52 102 0.0 1.7 0.00 0.00 0.00 99 1010.3
20260510065810 52 120 0.0 1.7 0.00 0.00 0.00 99 1010.4
20260510065307 52 239 0.0 0.0 0.00 0.00 0.00 99 1010.5
20260510064804 52 239 0.0 0.0 0.00 0.00 0.00 99 1010.3
20260510064302 52 209 0.0 1.7 0.00 0.00 0.00 99 1010.5
20260510063757 52 106 0.0 0.9 0.00 0.00 0.00 99 1010.4
20260510063254 52 100 0.0 1.7 0.00 0.00 0.00 99 1010.1
20260510062750 52 90 0.0 0.0 0.00 0.00 0.00 99 1010.3
20260510062246 52 220 0.0 0.0 0.00 0.00 0.00 99 1010.2
20260510061742 52 220 0.0 1.7 0.00 0.00 0.00 99 1010.1
20260510061239 52 209 0.9 1.7 0.00 0.00 0.00 99 1009.8
20260510060735 52 45 0.0 1.7 0.00 0.00 0.00 99 1009.9
20260510060232 52 237 0.0 0.0 0.00 0.00 0.00 99 1009.8
20260510055729 52 172 0.0 1.7 0.00 0.00 0.00 99 1009.9
20260510055227 51 120 0.0 1.7 0.00 0.00 0.00 99 1010.0
20260510054721 51 180 0.0 0.0 0.00 0.00 0.00 99 1009.7
20260510054218 51 180 0.0 0.0 0.00 0.00 0.00 99 1010.2
20260510053712 52 180 0.0 0.9 0.00 0.00 0.00 99 1009.7
20260510053209 52 126 0.0 0.9 0.00 0.00 0.00 99 1009.9
20260510052704 52 120 0.0 0.0 0.00 0.00 0.00 99 1009.9
20260510052201 52 105 0.0 0.9 0.00 0.00 0.00 99 1010.2
20260510051656 52 99 0.0 0.0 0.00 0.00 0.00 99 1010.1
20260510051153 52 126 0.9 1.7 0.00 0.00 0.00 99 1009.8
20260510050650 52 127 1.7 1.7 0.00 0.00 0.00 99 1010.4
20260510050148 52 106 0.0 0.0 0.00 0.00 0.00 99 1010.5
20260510045644 52 98 0.0 1.7 0.00 0.00 0.00 99 1010.3
20260510045141 52 172 0.0 0.0 0.00 0.00 0.00 99 1010.6
20260510044637 52 90 0.0 0.0 0.00 0.00 0.00 99 1010.1
20260510044135 52 99 0.0 0.0 0.00 0.00 0.00 99 1010.1
20260510043630 52 82 0.0 0.9 0.00 0.00 0.00 99 1010.4
20260510043127 52 111 0.0 1.7 0.00 0.00 0.00 99 1010.0
20260510042624 52 151 0.9 0.9 0.00 0.00 0.00 99 1010.1
20260510042120 52 90 0.0 0.9 0.00 0.00 0.00 99 1009.9
20260510041618 52 119 1.7 1.7 0.00 0.00 0.00 99 1009.9
20260510041115 52 131 0.0 1.7 0.00 0.00 0.00 99 1010.0
20260510040612 52 123 0.0 1.7 0.00 0.00 0.00 99 1010.0
20260510040108 52 96 0.0 0.0 0.00 0.00 0.00 99 1010.1
20260510035604 52 123 0.0 0.9 0.00 0.68 0.68 99 1010.1
20260510035104 52 251 0.0 0.9 0.00 0.68 0.68 99 1010.1
20260510034602 52 228 1.7 2.6 0.00 0.68 0.68 99 1010.3
20260510034059 52 188 0.0 0.9 0.00 0.68 0.68 99 1010.1
20260510033555 52 165 0.0 0.0 0.00 0.68 0.68 99 1010.2
20260510033052 52 220 0.0 1.7 0.00 0.68 0.68 99 1010.1
20260510032549 52 103 0.0 1.7 0.00 0.68 0.68 99 1010.2
20260510032044 52 90 0.0 1.7 0.00 0.68 0.68 99 1010.0
20260510031539 52 270 0.0 0.0 0.00 0.68 0.68 99 1010.3
20260510031035 52 270 0.0 0.0 0.00 0.68 0.68 99 1010.2
20260510030531 52 234 0.0 1.7 0.00 0.68 0.68 99 1010.1
20260510030028 52 105 0.0 0.9 0.00 0.68 0.68 99 1009.9
20260510025526 52 90 0.0 0.0 0.00 0.68 0.68 99 1010.0
20260510025023 52 117 0.0 0.0 0.00 0.68 0.68 99 1010.1
20260510024520 52 117 0.0 0.0 0.00 0.68 0.68 99 1009.7
20260510024016 52 117 0.0 0.0 0.00 0.68 0.68 99 1009.9
20260510023512 52 117 0.0 0.0 0.00 0.68 0.68 99 1009.9
20260510023010 52 117 0.0 0.0 0.00 0.68 0.68 99 1009.7
20260510022509 52 117 0.0 0.0 0.00 0.68 0.68 99 1009.9
20260510022009 52 117 0.0 0.0 0.00 0.68 0.68 99 1009.9
20260510021506 52 117 0.0 0.9 0.00 0.68 0.68 99 1009.8
20260510021003 52 117 0.0 1.7 0.00 0.68 0.68 99 1010.1
20260510020457 52 90 0.0 0.9 0.00 0.68 0.68 99 1009.7
20260510015953 52 117 0.0 1.7 0.00 0.68 0.68 99 1010.1
20260510015449 52 106 0.0 0.9 0.00 0.68 0.68 99 1010.2
20260510014944 52 114 0.0 0.9 0.00 0.68 0.68 99 1010.2
20260510014441 52 106 0.0 0.0 0.00 0.68 0.68 99 1010.2
20260510013938 52 106 0.0 0.0 0.00 0.68 0.68 99 1010.3
20260510013433 52 106 0.0 0.0 0.00 0.68 0.68 99 1010.0
20260510012929 52 106 0.0 0.0 0.00 0.68 0.68 99 1010.0
20260510012424 52 114 0.9 1.7 0.00 0.68 0.68 99 1010.1
20260510011919 52 270 0.0 0.0 0.00 0.68 0.68 99 1010.0
20260510011414 52 173 0.0 0.0 0.00 0.68 0.68 99 1009.8
20260510010910 52 173 0.0 0.0 0.00 0.68 0.68 99 1009.7
20260510010408 52 220 0.0 1.7 0.00 0.68 0.68 99 1009.5
20260510005904 52 145 0.9 1.7 0.00 0.68 0.68 99 1009.5
20260510005401 52 90 0.0 0.0 0.00 0.68 0.68 99 1009.5
20260510004858 52 96 0.9 1.7 0.00 0.68 0.68 99 1009.6
20260510004355 52 114 0.0 0.0 0.00 0.68 0.68 99 1009.4
20260510003853 52 114 0.0 0.0 0.00 0.68 0.68 99 1009.4
20260510003350 52 114 0.0 0.0 0.00 0.68 0.68 99 1009.3
20260510002848 52 114 0.0 0.0 0.00 0.68 0.68 99 1009.3
20260510002346 52 99 0.0 1.7 0.00 0.68 0.68 99 1009.3
20260510001842 52 109 0.0 1.7 0.00 0.68 0.68 99 1009.4
20260510001340 52 102 1.7 2.6 0.00 0.68 0.68 99 1009.5
20260510000836 52 90 0.0 0.9 0.00 0.68 0.68 99 1009.1
20260510000334 52 120 0.0 2.6 0.00 0.68 0.68 99 1009.1
20260509235830 52 203 0.9 1.7 0.00 0.68 0.68 99 1009.0
20260509235327 52 71 0.9 3.5 0.00 0.68 0.68 99 1009.2
20260509234822 52 103 0.0 1.7 0.00 0.68 0.68 99 1008.8
20260509234319 51 99 0.0 1.7 0.00 0.68 0.68 99 1009.0
20260509233818 51 84 0.9 2.6 0.00 0.68 0.68 99 1009.1
20260509233315 51 90 1.7 1.7 0.00 0.68 0.68 99 1009.1
20260509232811 51 107 0.0 1.7 0.00 0.68 0.68 99 1009.4
20260509232309 51 99 0.0 0.9 0.00 0.68 0.68 99 1009.4
20260509231805 51 81 0.0 1.7 0.00 0.68 0.68 99 1009.5
20260509231302 51 106 0.9 1.7 0.00 0.68 0.68 99 1009.4
20260509230800 51 97 0.0 1.7 0.00 0.68 0.68 99 1009.6
20260509230257 51 206 0.0 0.9 0.00 0.68 0.68 99 1009.8
20260509225757 51 114 0.0 0.9 0.02 0.68 0.68 99 1010.0
20260509225253 51 98 0.0 0.9 0.02 0.68 0.68 99 1009.8
20260509224749 51 105 0.0 0.9 0.00 0.67 0.67 99 1009.5
20260509224247 51 90 0.9 1.7 0.02 0.67 0.67 99 1009.8
20260509223743 51 152 0.0 1.7 0.05 0.67 0.67 99 1009.7
20260509223240 51 138 2.6 3.5 0.05 0.67 0.67 99 1009.8
20260509222737 51 90 0.9 1.7 0.07 0.67 0.67 99 1009.8
20260509222232 51 70 1.7 2.6 0.02 0.66 0.66 99 1009.5
20260509221728 51 105 0.9 0.9 0.02 0.65 0.65 99 1009.8
20260509221225 51 103 1.7 1.7 0.05 0.65 0.65 99 1009.8
20260509220721 51 95 1.7 1.7 0.05 0.65 0.65 99 1009.8
20260509220218 50 173 0.0 2.6 0.02 0.65 0.65 99 1010.1
20260509215713 50 195 0.0 1.7 0.02 0.64 0.64 99 1010.0
20260509215210 50 209 1.7 1.7 0.05 0.64 0.64 99 1010.0
20260509214707 50 120 0.0 1.7 0.02 0.64 0.64 99 1010.0
20260509214204 50 151 0.0 1.7 0.02 0.63 0.63 99 1010.0
20260509213700 50 103 0.9 1.7 0.02 0.63 0.63 99 1010.0